Вернуться в каталог

FENGYUN 1C DEB

АктивенPO
NORAD 31360·DEBRIS·🇨🇳 China

Запущен May 10, 1999 с Taiyuan Satellite Launch Center

Loading…

Ближайшие Пролёты (ближайшие 24 часа)

TLE

УстаревающийSource: Space-Track

Эпоха: Sep 4, 2026, 19:12 UTC

1 31360U 99025BRQ 26247.80005440  .00002304  00000-0  11498-2 0  9994
2 31360  97.9847  83.1521 0100256 174.3383 185.8952 14.15091094669599

Отслеживайте FENGYUN 1C DEB в реальном времени с AllMySat

Download on the App Store